リニア彗星

306P/LINEAR (2020)

English version
Home page
Updated on November 4, 2020

---------------------------------------------------------------------

・ プロフィール

・ 軌道要素

Epoch 2020 Feb. 1.0 TT = JDT 2458880.5
T 2020 Jan. 22.85970 TT                                 MPCW
q   1.2698676            (2000.0)            P               Q
n   0.17871974     Peri.    0.80093     +0.95200231     +0.30259340
a   3.1214356      Node   341.38404     -0.28163039     +0.80687147
e   0.5931783      Incl.    8.31041     -0.11989963     +0.50734176
P   5.51
From 303 observations 2003 July 30-2014 Dec. 15, mean residual 0".5.

・ 光度変化

        m1 = 18.5 + 5 logΔ + 10.0 log r

---------------------------------------------------------------------

軌道要素はM.P.E.C. 2015-A10に掲載されたものです。
光度グラフはComet for Windowsで作成したものです。

---------------------------------------------------------------------

Copyright(C) Seiichi Yoshida (comet@aerith.net). All rights reserved.